SCP
-0 -0 -0 -0 -0 -0 -0 -0 0 0 0 0 0 0 0 0 0 0 0 0 0 0 -0 -0 -0 -0 0 0 0 0 0 0 0 0 0 0 0 0 0 0 0 0 0
-0 -0 -0 -0 -0 -0 -0 -0 -0 -0 0 0 0 0 0 0 0 -0 0 -0 -0 -0 -0 -0 -0 0 0 0 0 0 0 0 0 0 0 0 0 0 0 0 0 0 0
-0 -0 -0 -0 -0 -0 -0 -0 -0 -0 0 0 0 0 0 0 0 0 0 0 -0 0 -0 -0 -0 0 0 0 0 0 0 0 0 0 0 0 0 0 0 0 0 0 0
-0 -0 -0 -0 -0 -0 -0 -0 -0 -0 0 0 0 0 0 0 -0 0 0 -0 -0 -0 -0 -0 0 0 0 0 0 0 0 0 0 0 0 0 0 0 0 0 0 0 0
-0 -0 -0 -0 -0 -0 -0 0 0 -0 0 0 0 0 0 0 -0 -0 -0 -0 -0 -0 0 0 0 0 0 0 0 0 0 0 0 0 0 0 0 0 0 0 0 -0 -0
-0 -1 -0 -0 -0 -0 -0 -0 0 0 0 0 0 0 0 0 -0 -0 -0 0 0 0 0 0 0 0 0 0 0 0 0 0 0 0 0 0 0 0 0 0 0 0 -0
-0 -0 -1 -0 -1 -0 -0 -0 0 0 0 0 0 0 0 0 -0 0 0 0 0 0 0 0 0 0 0 0 -0 -0 0 0 0 0 0 0 0 0 0 0 0 0 0
-0 -0 -1 -1 -0 -1 -0 -0 -0 0 0 0 0 0 0 -0 -0 -0 0 -0 0 0 0 0 -0 -0 -0 -0 -0 -0 -0 -0 -0 0 0 0 0 0 0 0 0 0 0
-0 -0 -1 -0 -0 -1 -1 -1 -0 -0 0 0 0 0 0 -0 -0 -0 -0 -0 -0 -0 -0 0 -0 0 -0 -0 -0 0 0 0 0 0 0 0 0 0 0 0 0 0 0
-0 -0 -0 -0 -0 -1 -1 -1 -0 -0 -0 0 0 0 0 0 -0 -0 -0 -0 -0 -0 -0 -0 -0 -0 -0 -0 -0 0 0 -0 0 -0 0 0 0 0 0 0 0 0 0
0 0 0 -0 -0 -1 -1 -2 -1 -0 0 0 0 0 0 0 0 0 -0 -0 -0 0 0 -0 -0 -0 -0 -0 -0 -0 -0 -0 -0 0 0 0 0 0 0 0 0 0 0
-0 -0 -0 -0 -0 -0 -1 -1 -1 -1 -1 -0 -0 -0 -0 -0 -0 -0 0 -0 -0 -0 -0 -0 0 -0 -0 -0 0 -0 -0 -0 0 0 0 0 0 0 0 0 0 0 0
0 -0 -0 -0 -0 -0 -1 -1 -1 -1 -1 -1 -1 -0 -0 -0 -0 -0 -0 0 0 0 -0 -0 -0 -0 -0 -0 -0 -0 -0 -0 0 0 0 0 0 0 0 0 0 0 0
0 0 0 0 -0 0 -0 -1 -1 -1 -0 -0 -1 -1 -0 -0 -0 -0 -0 -0 -0 0 -0 -0 -0 -0 -0 -0 -0 -0 -0 0 0 0 0 0 0 0 0 0 0 0 0
0 0 0 0 -0 0 0 -0 -1 -1 -1 -1 -1 -0 -0 -0 -0 -0 -0 -0 -0 0 -0 0 0 0 0 0 1 1 1 0 0 0 1 0 1 1 0 0 0 0 0
-0 -0 -0 0 1 1 0 0 0 0 -0 -0 -1 -1 -0 -0 -0 0 0 0 0 0 0 -0 -0 0 0 0 0 1 1 1 1 1 1 1 1 1 0 0 0 0 0
0 0 0 0 0 1 0 0 0 1 0 0 0 -0 0 -0 0 0 0 0 0 0 0 -0 0 0 0 0 0 1 2 2 1 2 1 2 1 0 0 0 0 0 0
0 0 0 0 0 1 1 1 1 1 1 1 1 1 0 0 0 1 0 0 1 1 1 1 0 1 0 1 1 1 2 3 2 2 1 2 1 0 0 0 0 0 0
0 0 0 0 0 0 1 2 3 4 3 3 3 2 1 0 1 0 0 1 1 1 1 1 2 1 1 1 1 2 4 4 3 3 3 2 0 0 0 0 0 0 0
0 0 0 1 1 1 4 6 6 6 8 8 7 6 5 4 3 1 1 1 1 1 2 2 2 2 2 2 1 2 7 6 3 0 0 0 0 0 0 0 0 0 0
0 2 2 2 2 1 2 4 5 4 3 3 4 4 4 4 3 3 4 3 2 2 2 3 4 6 4 1 0 1 8 6 0 0 0 0 0 0 0 0 0 0 0
2 1 1 2 2 2 1 1 1 1 1 1 1 1 1 1 1 1 1 2 3 3 4 3 0 0 0 0 0 0 0 0 0 0 0 0 0 0 0 0 0 0 0
1 1 1 1 2 2 1 1 1 1 1 1 1 1 1 1 0 1 2 3 5 6 5 0 0 0 0 0 0 0 0 0 0 0 0 -0 0 0 0 0 0 0 0
1 1 1 1 1 0 0 0 0 1 1 1 1 1 0 0 0 0 0 1 7 10 2 0 0 0 0 0 0 0 0 0 0 0 0 0 0 0 0 0 0 0 0
2 1 1 0 0 0 0 0 0 0 0 0 1 0 0 0 0 0 0 0 0 1 0 0 0 0 0 0 0 0 0 0 0 0 0 0 0 0 0 0 0 0 0
0 0 0 0 0 0 0 0 0 0 0 0 0 0 0 0 0 0 0 0 0 0 0 0 0 0 0 0 0 0 0 0 0 0 0 0 0 0 0 0 0 0 0
Wind_Speed_500mb
76 71 68 57 79 78 74 65 58 49 37 41 60 52 47 32 30 28 20 24 18 10 13 10 7 3 7 4 2 3 9 4 10 17 12 13 16 15 18 17 14 14 18
82 79 71 61 77 75 75 66 56 49 40 33 55 55 48 27 28 26 24 26 16 10 16 12 10 7 13 6 2 2 5 7 10 14 9 7 9 11 12 19 18 11 19
83 86 85 75 71 72 76 67 57 51 46 38 35 54 51 39 37 35 29 27 26 15 13 15 18 17 12 9 7 8 5 1 3 7 9 6 8 8 11 14 16 19 16
88 95 92 85 81 73 68 65 61 58 51 46 43 52 60 49 44 42 29 27 26 12 12 18 23 21 19 19 11 10 8 8 8 4 5 9 10 10 9 13 23 25 18
97 99 100 95 88 79 77 72 67 60 54 55 50 47 58 49 40 37 35 31 35 24 19 19 23 21 21 26 22 18 13 12 11 8 7 3 4 7 7 12 24 19 25
79 99 98 95 92 85 78 75 74 66 55 60 58 53 62 50 41 37 36 41 32 32 28 25 25 27 26 30 27 23 19 13 12 11 9 7 6 7 10 18 27 28 17
79 82 92 97 96 93 85 82 80 75 63 59 63 61 64 59 52 47 38 31 40 35 33 31 29 33 27 29 31 29 23 17 15 12 12 12 10 9 10 14 18 21 11
64 84 102 105 101 96 94 89 87 82 68 59 63 64 64 63 59 54 49 41 41 36 30 28 30 27 27 30 32 33 27 21 18 16 14 13 13 13 15 24 18 16 4
71 96 103 105 103 100 100 95 91 87 74 61 62 64 66 62 62 61 57 43 40 34 29 32 32 33 32 30 34 34 30 26 25 21 16 18 16 18 20 14 18 20 10
43 80 96 106 105 104 100 99 94 89 78 67 63 60 63 66 61 56 65 59 47 46 46 43 39 46 48 41 35 38 30 30 27 26 23 26 20 24 29 28 23 25 20
22 35 63 99 108 106 104 104 100 95 86 74 68 64 61 67 64 62 61 65 58 51 50 55 54 49 50 50 39 35 34 32 32 30 27 27 27 25 27 28 27 25 24
41 20 40 78 101 105 102 104 98 95 89 74 71 70 62 59 68 68 66 62 59 62 60 56 58 47 45 48 45 38 37 36 36 35 36 33 29 28 27 27 22 23 21
17 46 47 69 98 107 105 102 73 70 83 79 76 71 68 63 64 71 70 67 67 62 62 64 67 59 50 52 49 44 42 44 44 41 41 37 33 33 28 27 25 26 24
41 13 47 50 75 98 103 103 99 82 69 79 74 70 66 57 56 63 68 67 66 68 67 69 75 72 66 61 57 54 55 54 51 46 43 38 34 33 31 30 29 31 26
59 58 34 11 54 70 83 101 97 86 82 78 77 69 63 54 50 55 57 61 66 67 70 70 75 77 75 73 70 66 65 62 57 51 45 41 35 25 33 33 31 32 28
62 60 58 19 22 66 79 88 96 89 87 83 77 67 61 56 47 53 56 53 56 63 68 77 78 79 79 77 75 69 66 61 55 50 46 42 36 31 34 31 31 30 30
60 66 55 40 27 19 61 84 93 90 90 85 77 70 60 60 58 51 50 57 57 56 62 70 72 78 77 74 74 71 66 58 46 45 40 38 37 36 35 31 36 37 32
49 45 46 41 34 37 38 28 68 78 79 81 79 73 70 68 64 64 66 64 63 66 67 67 66 69 70 67 69 67 66 61 55 54 53 39 37 40 38 33 36 39 39
49 47 47 47 43 38 33 38 41 37 35 51 49 48 57 63 69 80 82 79 82 82 81 80 80 80 76 73 72 73 72 66 63 62 61 54 48 45 41 38 40 40 40
39 41 39 38 35 31 26 28 30 30 28 27 27 25 26 32 39 49 65 82 97 105 101 99 99 97 91 87 84 84 82 78 73 70 70 52 51 46 40 41 39 44 41
38 32 31 36 32 21 15 19 11 8 9 15 20 27 34 37 43 53 60 65 73 79 88 106 107 106 106 104 100 91 83 78 74 72 75 62 58 40 41 39 38 41 42
21 28 27 25 19 13 7 7 12 17 23 29 38 41 41 45 48 52 56 64 69 70 74 80 87 95 98 92 86 73 73 81 72 65 42 67 55 38 35 33 35 36 29
10 11 14 16 16 18 19 21 23 29 36 39 41 47 49 47 48 49 49 50 50 56 63 71 81 80 74 71 62 68 69 51 37 36 6 13 14 35 41 37 24 21 19
6 12 20 26 28 25 28 34 36 37 39 45 47 47 47 41 39 42 42 45 48 51 62 65 65 67 63 62 61 61 51 45 25 28 34 40 29 34 28 20 16 10 13
4 12 17 25 38 44 44 42 43 42 45 46 47 45 37 34 32 35 35 39 46 55 55 55 61 69 63 59 60 58 37 26 26 38 37 34 28 22 16 13 12 10 3
2 10 18 28 32 43 45 39 31 28 28 30 30 30 26 28 28 31 32 32 34 46 48 52 44 56 54 49 37 31 24 28 25 27 22 25 21 17 18 17 18 12 9
Wind_Direction_500mb
210 214 206 208 202 201 197 198 199 201 200 200 195 193 195 202 181 203 196 204 219 190 188 195 207 171 184 183 331 353 147 23 15 5 57 67 69 68 72 66 52 19 22
208 201 204 204 202 204 203 206 208 205 208 202 201 199 192 194 191 205 217 218 232 236 208 239 235 209 214 225 238 68 159 82 15 4 40 54 79 62 67 57 46 3 4
203 200 195 197 198 199 206 208 208 212 214 207 193 196 195 195 199 214 225 234 236 232 225 220 217 208 238 230 190 189 230 179 16 7 32 9 17 32 65 42 28 2 350
202 196 198 197 204 209 209 211 212 215 217 210 204 198 194 200 201 216 206 220 218 228 239 224 222 222 233 217 209 210 246 299 329 270 19 33 29 12 0 51 11 15 353
200 199 200 202 203 206 207 211 214 217 221 213 212 205 204 202 210 215 228 222 236 222 226 226 224 226 231 220 228 228 243 281 290 267 291 319 359 9 24 2 3 18 15
200 203 205 202 204 206 207 211 212 216 221 219 214 207 202 202 211 213 211 218 222 227 225 227 234 226 225 229 236 240 242 254 265 270 282 288 290 340 335 333 339 349 359
202 200 197 198 206 205 207 211 214 215 219 219 215 209 209 209 216 214 218 219 227 222 228 235 235 226 234 233 232 241 236 241 257 264 273 265 282 289 297 302 315 325 357
200 201 202 202 204 207 209 212 215 217 217 216 214 215 214 213 216 213 213 223 232 232 247 244 231 219 222 230 234 233 235 237 246 267 265 277 274 266 278 280 284 306 334
229 202 203 203 204 210 212 214 216 217 216 214 211 214 214 212 213 211 216 220 225 222 235 238 233 237 234 235 235 236 241 245 251 261 273 287 266 253 261 265 249 268 296
209 194 195 201 205 215 216 216 218 217 214 213 212 212 215 216 215 213 212 217 222 227 238 243 243 250 246 244 244 238 241 243 249 253 262 278 273 257 263 261 257 260 271
57 188 206 202 209 214 217 218 219 217 215 215 215 213 215 217 220 219 218 223 225 226 230 236 244 250 243 240 245 241 241 242 247 250 255 272 274 268 267 256 249 259 273
270 285 265 221 204 211 217 218 219 218 218 217 217 218 218 221 222 226 225 224 227 229 233 234 239 239 234 234 242 242 248 253 255 256 260 266 270 275 262 251 254 255 258
125 9 297 225 208 211 218 218 218 218 219 217 219 219 221 224 226 226 228 228 229 230 229 229 236 242 241 241 242 244 253 258 256 255 258 264 273 270 259 254 253 262 256
136 337 345 216 213 209 217 218 220 222 217 217 219 222 222 227 226 225 227 230 230 228 226 229 234 241 246 250 251 253 256 262 261 258 257 266 273 274 272 266 266 273 259
161 148 261 333 213 211 212 217 219 220 219 218 219 221 222 226 230 224 225 229 232 234 232 234 235 240 246 250 252 254 257 260 261 263 261 260 260 264 270 269 262 269 263
148 146 158 195 167 211 215 218 219 219 220 220 222 223 223 223 225 228 230 229 232 236 238 239 241 243 244 246 250 251 254 257 258 257 254 255 260 248 253 263 268 259 264
147 148 149 146 151 173 214 217 223 222 221 222 225 224 228 231 231 231 232 234 233 239 242 240 240 244 248 249 250 250 250 249 248 242 237 246 249 243 250 260 256 256 261
140 132 127 122 122 112 108 138 215 218 221 223 226 228 231 236 241 244 245 246 245 241 241 243 243 244 246 247 248 248 247 245 241 234 232 234 237 237 241 249 250 255 255
124 116 126 135 130 127 132 132 123 135 185 214 224 235 245 249 250 250 252 255 253 251 249 250 251 250 252 251 251 250 248 245 242 236 231 241 242 234 232 244 247 244 255
108 106 110 112 118 112 129 146 142 144 147 168 185 201 221 235 243 251 255 259 257 256 257 256 255 256 256 258 258 251 248 245 238 236 237 240 228 228 231 236 240 249 248
85 96 100 88 79 85 99 123 124 166 215 250 255 253 252 259 258 256 255 255 255 257 259 257 255 255 255 253 253 256 253 250 251 246 238 230 225 224 232 235 254 245 263
65 58 68 67 52 24 356 332 311 298 284 276 274 274 271 270 268 265 263 261 257 250 254 257 255 253 253 252 248 245 246 250 254 244 221 201 191 212 229 263 261 275 285
53 37 21 18 1 347 334 311 292 285 285 284 279 277 279 278 272 273 267 259 260 253 254 256 251 248 246 248 245 243 234 229 217 193 17 346 244 242 254 267 268 270 277
17 334 323 337 341 332 320 318 311 295 281 280 282 279 278 280 275 277 272 259 261 260 256 252 248 244 235 231 230 219 198 162 176 218 220 243 229 238 259 260 248 282 300
283 326 323 321 324 322 318 306 298 292 286 282 282 284 284 280 275 279 277 265 254 252 258 262 255 232 228 210 200 198 190 200 195 223 231 210 221 210 243 204 220 228 221
231 307 306 307 304 306 302 297 293 288 288 285 285 294 296 283 275 274 274 267 253 252 260 255 254 234 212 192 184 187 199 192 188 188 192 192 219 212 204 208 215 207 205
Wind_Speed_850mb
76 71 68 57 79 78 74 65 58 49 37 41 60 52 47 32 30 28 20 24 18 10 13 10 7 3 7 4 2 3 9 4 10 17 12 13 16 15 18 17 14 14 18
82 79 71 61 77 75 75 66 56 49 40 33 55 55 48 27 28 26 24 26 16 10 16 12 10 7 13 6 2 2 5 7 10 14 9 7 9 11 12 19 18 11 19
83 86 85 75 71 72 76 67 57 51 46 38 35 54 51 39 37 35 29 27 26 15 13 15 18 17 12 9 7 8 5 1 3 7 9 6 8 8 11 14 16 19 16
88 95 92 85 81 73 68 65 61 58 51 46 43 52 60 49 44 42 29 27 26 12 12 18 23 21 19 19 11 10 8 8 8 4 5 9 10 10 9 13 23 25 18
97 99 100 95 88 79 77 72 67 60 54 55 50 47 58 49 40 37 35 31 35 24 19 19 23 21 21 26 22 18 13 12 11 8 7 3 4 7 7 12 24 19 25
79 99 98 95 92 85 78 75 74 66 55 60 58 53 62 50 41 37 36 41 32 32 28 25 25 27 26 30 27 23 19 13 12 11 9 7 6 7 10 18 27 28 17
79 82 92 97 96 93 85 82 80 75 63 59 63 61 64 59 52 47 38 31 40 35 33 31 29 33 27 29 31 29 23 17 15 12 12 12 10 9 10 14 18 21 11
64 84 102 105 101 96 94 89 87 82 68 59 63 64 64 63 59 54 49 41 41 36 30 28 30 27 27 30 32 33 27 21 18 16 14 13 13 13 15 24 18 16 4
71 96 103 105 103 100 100 95 91 87 74 61 62 64 66 62 62 61 57 43 40 34 29 32 32 33 32 30 34 34 30 26 25 21 16 18 16 18 20 14 18 20 10
43 80 96 106 105 104 100 99 94 89 78 67 63 60 63 66 61 56 65 59 47 46 46 43 39 46 48 41 35 38 30 30 27 26 23 26 20 24 29 28 23 25 20
22 35 63 99 108 106 104 104 100 95 86 74 68 64 61 67 64 62 61 65 58 51 50 55 54 49 50 50 39 35 34 32 32 30 27 27 27 25 27 28 27 25 24
41 20 40 78 101 105 102 104 98 95 89 74 71 70 62 59 68 68 66 62 59 62 60 56 58 47 45 48 45 38 37 36 36 35 36 33 29 28 27 27 22 23 21
17 46 47 69 98 107 105 102 73 70 83 79 76 71 68 63 64 71 70 67 67 62 62 64 67 59 50 52 49 44 42 44 44 41 41 37 33 33 28 27 25 26 24
41 13 47 50 75 98 103 103 99 82 69 79 74 70 66 57 56 63 68 67 66 68 67 69 75 72 66 61 57 54 55 54 51 46 43 38 34 33 31 30 29 31 26
59 58 34 11 54 70 83 101 97 86 82 78 77 69 63 54 50 55 57 61 66 67 70 70 75 77 75 73 70 66 65 62 57 51 45 41 35 25 33 33 31 32 28
62 60 58 19 22 66 79 88 96 89 87 83 77 67 61 56 47 53 56 53 56 63 68 77 78 79 79 77 75 69 66 61 55 50 46 42 36 31 34 31 31 30 30
60 66 55 40 27 19 61 84 93 90 90 85 77 70 60 60 58 51 50 57 57 56 62 70 72 78 77 74 74 71 66 58 46 45 40 38 37 36 35 31 36 37 32
49 45 46 41 34 37 38 28 68 78 79 81 79 73 70 68 64 64 66 64 63 66 67 67 66 69 70 67 69 67 66 61 55 54 53 39 37 40 38 33 36 39 39
49 47 47 47 43 38 33 38 41 37 35 51 49 48 57 63 69 80 82 79 82 82 81 80 80 80 76 73 72 73 72 66 63 62 61 54 48 45 41 38 40 40 40
39 41 39 38 35 31 26 28 30 30 28 27 27 25 26 32 39 49 65 82 97 105 101 99 99 97 91 87 84 84 82 78 73 70 70 52 51 46 40 41 39 44 41
38 32 31 36 32 21 15 19 11 8 9 15 20 27 34 37 43 53 60 65 73 79 88 106 107 106 106 104 100 91 83 78 74 72 75 62 58 40 41 39 38 41 42
21 28 27 25 19 13 7 7 12 17 23 29 38 41 41 45 48 52 56 64 69 70 74 80 87 95 98 92 86 73 73 81 72 65 42 67 55 38 35 33 35 36 29
10 11 14 16 16 18 19 21 23 29 36 39 41 47 49 47 48 49 49 50 50 56 63 71 81 80 74 71 62 68 69 51 37 36 6 13 14 35 41 37 24 21 19
6 12 20 26 28 25 28 34 36 37 39 45 47 47 47 41 39 42 42 45 48 51 62 65 65 67 63 62 61 61 51 45 25 28 34 40 29 34 28 20 16 10 13
4 12 17 25 38 44 44 42 43 42 45 46 47 45 37 34 32 35 35 39 46 55 55 55 61 69 63 59 60 58 37 26 26 38 37 34 28 22 16 13 12 10 3
2 10 18 28 32 43 45 39 31 28 28 30 30 30 26 28 28 31 32 32 34 46 48 52 44 56 54 49 37 31 24 28 25 27 22 25 21 17 18 17 18 12 9
Wind_Direction_850mb
210 214 206 208 202 201 197 198 199 201 200 200 195 193 195 202 181 203 196 204 219 190 188 195 207 171 184 183 331 353 147 23 15 5 57 67 69 68 72 66 52 19 22
208 201 204 204 202 204 203 206 208 205 208 202 201 199 192 194 191 205 217 218 232 236 208 239 235 209 214 225 238 68 159 82 15 4 40 54 79 62 67 57 46 3 4
203 200 195 197 198 199 206 208 208 212 214 207 193 196 195 195 199 214 225 234 236 232 225 220 217 208 238 230 190 189 230 179 16 7 32 9 17 32 65 42 28 2 350
202 196 198 197 204 209 209 211 212 215 217 210 204 198 194 200 201 216 206 220 218 228 239 224 222 222 233 217 209 210 246 299 329 270 19 33 29 12 0 51 11 15 353
200 199 200 202 203 206 207 211 214 217 221 213 212 205 204 202 210 215 228 222 236 222 226 226 224 226 231 220 228 228 243 281 290 267 291 319 359 9 24 2 3 18 15
200 203 205 202 204 206 207 211 212 216 221 219 214 207 202 202 211 213 211 218 222 227 225 227 234 226 225 229 236 240 242 254 265 270 282 288 290 340 335 333 339 349 359
202 200 197 198 206 205 207 211 214 215 219 219 215 209 209 209 216 214 218 219 227 222 228 235 235 226 234 233 232 241 236 241 257 264 273 265 282 289 297 302 315 325 357
200 201 202 202 204 207 209 212 215 217 217 216 214 215 214 213 216 213 213 223 232 232 247 244 231 219 222 230 234 233 235 237 246 267 265 277 274 266 278 280 284 306 334
229 202 203 203 204 210 212 214 216 217 216 214 211 214 214 212 213 211 216 220 225 222 235 238 233 237 234 235 235 236 241 245 251 261 273 287 266 253 261 265 249 268 296
209 194 195 201 205 215 216 216 218 217 214 213 212 212 215 216 215 213 212 217 222 227 238 243 243 250 246 244 244 238 241 243 249 253 262 278 273 257 263 261 257 260 271
57 188 206 202 209 214 217 218 219 217 215 215 215 213 215 217 220 219 218 223 225 226 230 236 244 250 243 240 245 241 241 242 247 250 255 272 274 268 267 256 249 259 273
270 285 265 221 204 211 217 218 219 218 218 217 217 218 218 221 222 226 225 224 227 229 233 234 239 239 234 234 242 242 248 253 255 256 260 266 270 275 262 251 254 255 258
125 9 297 225 208 211 218 218 218 218 219 217 219 219 221 224 226 226 228 228 229 230 229 229 236 242 241 241 242 244 253 258 256 255 258 264 273 270 259 254 253 262 256
136 337 345 216 213 209 217 218 220 222 217 217 219 222 222 227 226 225 227 230 230 228 226 229 234 241 246 250 251 253 256 262 261 258 257 266 273 274 272 266 266 273 259
161 148 261 333 213 211 212 217 219 220 219 218 219 221 222 226 230 224 225 229 232 234 232 234 235 240 246 250 252 254 257 260 261 263 261 260 260 264 270 269 262 269 263
148 146 158 195 167 211 215 218 219 219 220 220 222 223 223 223 225 228 230 229 232 236 238 239 241 243 244 246 250 251 254 257 258 257 254 255 260 248 253 263 268 259 264
147 148 149 146 151 173 214 217 223 222 221 222 225 224 228 231 231 231 232 234 233 239 242 240 240 244 248 249 250 250 250 249 248 242 237 246 249 243 250 260 256 256 261
140 132 127 122 122 112 108 138 215 218 221 223 226 228 231 236 241 244 245 246 245 241 241 243 243 244 246 247 248 248 247 245 241 234 232 234 237 237 241 249 250 255 255
124 116 126 135 130 127 132 132 123 135 185 214 224 235 245 249 250 250 252 255 253 251 249 250 251 250 252 251 251 250 248 245 242 236 231 241 242 234 232 244 247 244 255
108 106 110 112 118 112 129 146 142 144 147 168 185 201 221 235 243 251 255 259 257 256 257 256 255 256 256 258 258 251 248 245 238 236 237 240 228 228 231 236 240 249 248
85 96 100 88 79 85 99 123 124 166 215 250 255 253 252 259 258 256 255 255 255 257 259 257 255 255 255 253 253 256 253 250 251 246 238 230 225 224 232 235 254 245 263
65 58 68 67 52 24 356 332 311 298 284 276 274 274 271 270 268 265 263 261 257 250 254 257 255 253 253 252 248 245 246 250 254 244 221 201 191 212 229 263 261 275 285
53 37 21 18 1 347 334 311 292 285 285 284 279 277 279 278 272 273 267 259 260 253 254 256 251 248 246 248 245 243 234 229 217 193 17 346 244 242 254 267 268 270 277
17 334 323 337 341 332 320 318 311 295 281 280 282 279 278 280 275 277 272 259 261 260 256 252 248 244 235 231 230 219 198 162 176 218 220 243 229 238 259 260 248 282 300
283 326 323 321 324 322 318 306 298 292 286 282 282 284 284 280 275 279 277 265 254 252 258 262 255 232 228 210 200 198 190 200 195 223 231 210 221 210 243 204 220 228 221
231 307 306 307 304 306 302 297 293 288 288 285 285 294 296 283 275 274 274 267 253 252 260 255 254 234 212 192 184 187 199 192 188 188 192 192 219 212 204 208 215 207 205